AEROCUBE 14B (45116 NORAD) Tracking and Keplerian Element Data

This shows tracking and keplerian element data for the satellite.

Feedback or suggestion? Click here.




ElementValue
Catalog45116
NameAEROCUBE 14B
Epoch Orbit960
Epoch Day94.13421876
Epoch Year2020
RAAN7.2944
Inclination51.6441
Eccentricity0.0011861
Argument of Perigee147.0199
Mean Anonmoly213.1525
Mean Motion15.33120165
Decay Rate1.971E-05
L11 45116U 19071F 20094.13421876 .00001971 00000-0 72189-4 0 9991
L22 45116 51.6441 7.2944 0011861 147.0199 213.1525 15.33120165 9605

Live tracking and technical data element details for AEROCUBE 14B (NORAD 45116). AEROCUBE 14B can be tracked NOW for your location showing map with azimuth and elevation plus other details from your city location.

Track the satellite on the map from your city or location and see movement details for azimuth, elevation, latitude, longitude, range, height, and movement on the map or in text.







IsCatalogInMostPopularTable: catalog: 45116, numindb: 14
Update: records affected: 1



GetName: 45116 AEROCUBE 14B

Hit Count: updated at: Fri, 03 Apr 2020 22:47:00 GMT